1488492000.79,53798,8.94,72736.5,-11.59,-13.01,-13.01,0,*6C
1488492002.05,53799,8.94,72750.5,-11.59,-13.11,-13.01,0,*6C
1488492003.29,53800,8.88,72748.5,-11.59,-13.11,-13.11,0,*62
1488492004.53,53801,8.94,72748.5,-11.59,-13.11,-13.11,0,*63
1488492005.76,53802,8.88,72740.0,-11.59,-13.15,-13.15,0,*60
1488492007.02,53803,8.94,72744.3,-11.59,-13.01,-13.15,0,*64
1488492008.26,53804,8.88,72750.8,-11.57,-13.11,-13.01,0,*69
1488492009.49,53805,8.94,72758.8,-11.59,-13.15,-13.15,0,*67
1488492010.72,53806,8.94,72752.5,-11.59,-13.15,-13.15,0,*64
1488492011.96,53807,8.88,72748.0,-11.59,-13.15,-13.23,0,*60
1488492013.2,53808,8.94,72748.3,-11.59,-13.23,-13.15,0,*6F
1488492014.41,53809,8.88,72746.0,-11.61,-13.19,-13.15,0,*6C
1488492015.64,53810,8.94,72750.3,-11.59,-13.15,-13.15,0,*63
1488492016.9,53811,8.94,72748.3,-11.59,-13.15,-13.01,0,*67
1488492018.11,53812,8.94,72754.5,-11.61,-13.15,-13.15,0,*6A
1488492019.34,53813,8.94,72754.3,-11.55,-12.97,-13.07,0,*64
1488492020.6,53814,8.94,72758.5,-11.57,-13.01,-13.01,0,*69
1488492021.86,53815,8.94,72758.0,-11.57,-13.01,-13.01,0,*68
1488492023.12,53816,8.94,72760.3,-11.57,-13.01,-13.01,0,*6B
1488492024.36,53817,8.94,72760.5,-11.57,-13.11,-13.01,0,*6B
1488492025.62,53818,8.94,72762.8,-11.57,-13.01,-13.01,0,*65
1488492026.86,53819,8.88,72760.3,-11.57,-13.01,-12.89,0,*65
1488492028.07,53820,8.94,72766.3,-11.57,-12.97,-12.93,0,*6A
1488492029.34,53821,8.94,72766.3,-11.59,-13.01,-12.97,0,*6F
1488492030.61,53822,8.94,72766.3,-11.59,-13.01,-12.97,0,*6C
1488492031.88,53823,8.94,72764.5,-11.59,-13.01,-12.97,0,*6D
1488492033.1,53824,8.88,72762.8,-11.57,-12.97,-12.89,0,*65
1488492034.33,53825,8.88,72764.3,-11.57,-12.89,-13.01,0,*6A
1488492035.54,53826,8.94,72764.5,-11.57,-12.97,-12.89,0,*67
1488492036.76,53827,8.94,72764.0,-11.57,-12.89,-12.97,0,*66
1488492037.97,53828,8.94,72766.5,-11.57,-12.89,-12.97,0,*69
1488492039.26,53829,8.88,72764.3,-11.55,-12.83,-12.83,0,*65
1488492040.55,53830,8.94,72766.0,-11.55,-12.83,-12.83,0,*6D
1488492041.76,53831,8.88,72764.3,-11.57,-12.97,-12.89,0,*61
1488492043.0,53832,8.88,72766.0,-11.57,-12.83,-12.97,0,*68
1488492044.26,53833,8.94,72770.8,-11.57,-13.01,-13.01,0,*6C
1488492045.5,53834,8.88,72766.3,-11.55,-12.97,-12.97,0,*69
1488492046.74,53835,8.94,72764.8,-11.55,-12.97,-13.07,0,*60
1488492047.98,53836,8.88,72764.3,-11.55,-12.97,-12.93,0,*6F
1488492049.23,53837,8.88,72760.8,-11.55,-12.93,-12.97,0,*6E
1488492050.46,53838,8.88,72754.8,-11.55,-13.07,-13.07,0,*65
1488492051.7,53839,8.94,72752.0,-11.55,-13.07,-13.07,0,*64
1488492052.94,53840,8.94,72744.0,-11.55,-13.07,-13.11,0,*6D
1488492054.19,53841,8.94,72738.3,-11.55,-13.07,-13.19,0,*64
1488492055.43,53842,8.88,72726.5,-11.55,-13.19,-13.19,0,*68
1488492056.68,53843,8.88,72732.8,-11.55,-13.11,-13.19,0,*61
1488492057.93,53844,8.94,72738.8,-11.55,-13.19,-13.19,0,*6E
1488492059.2,53845,8.94,72734.5,-11.55,-13.23,-13.33,0,*6E
1488492060.49,53846,8.94,72726.3,-11.55,-13.33,-13.33,0,*6C
1488492061.73,53847,8.88,72724.3,-11.55,-13.23,-13.23,0,*6D
1488492062.98,53848,8.94,72732.0,-11.55,-13.23,-13.23,0,*62
1488492064.24,53849,8.94,72720.0,-11.57,-13.29,-13.29,0,*61
1488492065.49,53850,8.88,72708.8,-11.55,-13.23,-13.19,0,*62
1488492066.74,53851,8.88,72710.0,-11.55,-13.23,-13.19,0,*63
1488492067.98,53852,8.94,72710.0,-11.55,-13.19,-13.11,0,*61
1488492069.23,53853,8.94,72710.5,-11.55,-13.19,-13.19,0,*68
1488492070.48,53854,8.88,72712.5,-11.55,-13.11,-13.19,0,*67
1488492071.71,53855,8.94,72716.3,-11.55,-13.11,-13.11,0,*6E
1488492072.96,53856,8.94,72716.3,-11.55,-13.11,-13.19,0,*65
1488492074.2,53857,8.94,72712.3,-11.55,-13.11,-13.23,0,*6D
1488492075.47,53858,8.94,72712.5,-11.55,-13.19,-13.33,0,*6B
1488492076.71,53859,8.88,72708.8,-11.51,-13.19,-13.65,0,*6D
1488492077.96,53860,8.88,72706.0,-11.51,-13.23,-13.79,0,*63
1488492079.25,53861,8.94,72704.5,-11.51,-13.33,-13.97,0,*63
1488492080.51,53862,8.94,72710.0,-11.51,-13.37,-14.19,0,*65
1488492081.75,53863,8.88,72708.8,-11.51,-13.55,-14.29,0,*63
1488492083.01,53864,8.88,72712.5,-11.51,-13.65,-14.51,0,*68
1488492084.23,53865,8.94,72716.0,-11.49,-13.73,-14.61,0,*64
1488492085.53,53866,8.88,72718.3,-11.51,-13.97,-14.79,0,*6D
1488492086.82,53867,8.88,72714.0,-11.51,-13.97,-14.97,0,*6C
1488492088.1,53868,8.88,72724.5,-11.51,-14.05,-15.29,0,*6B
1488492089.37,53869,8.94,72732.8,-11.51,-14.19,-15.57,0,*6E
1488492090.64,53870,8.88,72744.0,-11.51,-14.37,-16.09,0,*62
1488492091.91,53871,8.94,72742.5,-11.51,-14.79,-16.59,0,*6C
1488492093.17,53872,8.94,72740.3,-11.51,-15.07,-17.03,0,*69
1488492094.43,53873,8.88,72736.5,-11.51,-15.29,-17.59,0,*6B
1488492095.72,53874,8.94,72738.0,-11.51,-15.57,-17.93,0,*63
1488492096.98,53875,8.94,72740.5,-11.51,-15.85,-18.41,0,*6D
1488492098.21,53876,8.88,72746.0,-11.49,-15.95,-18.89,0,*62
1488492099.5,53877,8.88,72748.0,-11.51,-16.17,-19.61,0,*64
1488492100.74,53878,8.94,72748.8,-11.51,-16.55,-20.05,0,*65
1488492101.98,53879,8.88,72744.3,-11.51,-16.83,-20.93,0,*60
1488492103.21,53880,8.94,72746.8,-11.51,-17.31,-21.73,0,*61
1488492104.47,53881,8.88,72742.3,-11.51,-17.93,-22.41,0,*6A
1488492105.74,53882,8.88,72740.8,-11.51,-18.69,-23.23,0,*66
1488492107.01,53883,8.88,72736.8,-11.51,-19.71,-23.85,0,*63
1488492108.24,53884,8.94,72738.3,-11.51,-20.69,-24.31,0,*6F
1488492109.48,53885,8.88,72740.5,-11.51,-21.77,-24.47,0,*61
1488492110.72,53886,8.88,72734.8,-11.51,-22.83,-24.61,0,*6E
1488492111.96,53887,8.88,72726.3,-11.55,-23.79,-24.31,0,*6A
1488492113.22,53888,8.88,72726.5,-11.55,-24.77,-23.99,0,*69
1488492114.48,53889,8.88,72728.0,-11.55,-25.45,-23.39,0,*62
1488492115.75,53890,8.88,72736.0,-11.55,-25.97,-22.67,0,*6F
1488492117.01,53891,8.94,72724.5,-11.55,-26.33,-21.63,0,*64
1488492118.26,53892,8.94,72718.5,-11.55,-26.61,-20.63,0,*61
1488492119.53,53893,8.88,72716.3,-11.55,-26.49,-19.61,0,*62
1488492120.79,53894,8.88,72724.5,-11.57,-26.17,-18.55,0,*6A
1488492122.06,53895,8.88,72722.3,-11.55,-25.09,-17.59,0,*66
1488492123.31,53896,8.88,72716.3,-11.57,-24.35,-17.07,0,*62
1488492124.54,53897,8.88,72726.0,-11.57,-23.29,-16.89,0,*6E
1488492125.81,53898,8.88,72730.0,-11.55,-22.53,-16.69,0,*61
1488492127.06,53899,8.94,72736.0,-11.55,-21.63,-16.59,0,*63
1488492128.32,53900,8.94,72742.0,-11.57,-21.03,-16.65,0,*69
1488492129.56,53901,8.88,72746.8,-11.55,-20.25,-16.41,0,*69
1488492130.81,53902,8.88,72744.5,-11.57,-19.81,-16.31,0,*6B
1488492132.05,53903,8.88,72746.5,-11.55,-18.99,-15.99,0,*61
1488492133.29,53904,8.88,72740.3,-11.55,-18.49,-15.67,0,*6A
1488492134.54,53905,8.94,72744.5,-11.57,-17.97,-15.49,0,*69
1488492135.79,53906,8.88,72748.3,-11.55,-17.35,-15.11,0,*6D
1488492137.05,53907,8.88,72740.3,-11.55,-16.97,-14.97,0,*6A
1488492138.32,53908,8.88,72744.0,-11.57,-16.65,-14.83,0,*6F
1488492139.58,53909,8.88,72742.8,-11.55,-16.27,-14.69,0,*6E
1488492140.82,53910,8.88,72738.5,-11.57,-16.03,-14.75,0,*6F
1488492142.09,53911,8.88,72742.3,-11.55,-15.67,-14.55,0,*6F
1488492143.32,53912,8.88,72742.0,-11.57,-15.43,-14.69,0,*67
1488492144.56,53913,8.88,72744.3,-11.55,-15.25,-14.65,0,*68
1488492145.8,53914,8.88,72746.3,-11.55,-15.07,-14.69,0,*63
1488492147.06,53915,8.88,72752.8,-11.55,-15.07,-14.93,0,*67
1488492148.32,53916,8.88,72754.5,-11.55,-14.97,-15.07,0,*60
1488492149.56,53917,8.94,72756.0,-11.55,-15.07,-15.29,0,*65
1488492150.83,53918,8.94,72756.5,-11.55,-15.07,-15.43,0,*66
1488492152.05,53919,8.94,72752.0,-11.57,-15.25,-15.71,0,*64
1488492153.31,53920,8.94,72750.5,-11.55,-15.11,-15.81,0,*64
1488492154.61,53921,8.88,72752.0,-11.55,-15.39,-16.09,0,*6C
1488492155.85,53922,8.94,72752.8,-11.57,-15.63,-16.23,0,*6A
1488492157.13,53923,8.94,72750.8,-11.55,-15.85,-16.51,0,*64
1488492158.4,53924,8.88,72746.5,-11.55,-16.13,-16.45,0,*6A
1488492159.63,53925,8.94,72742.3,-11.57,-16.37,-16.51,0,*6A
1488492160.9,53926,8.94,72744.5,-11.55,-16.55,-16.27,0,*6E
1488492162.14,53927,8.88,72740.5,-11.57,-16.75,-16.13,0,*68
1488492163.36,53928,8.88,72736.0,-11.57,-16.89,-16.03,0,*65
1488492164.63,53929,8.94,72742.3,-11.57,-17.07,-15.85,0,*6E
1488492165.87,53930,8.88,72736.3,-11.57,-17.03,-15.49,0,*62
1488492167.09,53931,8.88,72736.8,-11.57,-16.89,-15.15,0,*69
1488492168.33,53932,8.88,72742.3,-11.57,-16.75,-15.01,0,*6C
1488492169.57,53933,8.88,72738.0,-11.55,-16.59,-15.07,0,*67
1488492170.82,53934,8.88,72746.0,-11.55,-16.59,-15.07,0,*60
1488492172.03,53935,8.88,72734.8,-11.57,-16.59,-15.15,0,*60
1488492173.3,53936,8.88,72710.3,-11.57,-16.51,-15.35,0,*69
1488492174.56,53937,8.88,72718.8,-11.57,-16.51,-15.43,0,*69
1488492175.83,53938,8.88,72714.3,-11.57,-16.51,-15.57,0,*63
1488492177.07,53939,8.88,72704.5,-11.57,-16.51,-15.75,0,*62
1488492178.31,53940,8.88,72706.8,-11.57,-16.75,-15.89,0,*69
1488492179.55,53941,8.88,72710.3,-11.57,-16.75,-15.89,0,*68
1488492180.77,53942,8.88,72720.3,-11.57,-16.79,-15.75,0,*64
1488492181.99,53943,8.88,72714.0,-11.57,-16.89,-15.71,0,*6E
1488492183.2,53944,8.94,72716.5,-11.57,-16.79,-15.63,0,*65
1488492184.42,53945,8.88,72714.0,-11.57,-16.79,-15.49,0,*6C
1488492185.69,53946,8.88,72710.8,-11.57,-16.65,-15.57,0,*6D
1488492186.93,53947,8.88,72720.0,-11.57,-16.51,-15.71,0,*6F
1488492188.17,53948,8.94,72722.0,-11.57,-16.37,-15.89,0,*67
1488492189.41,53949,8.88,72716.3,-11.57,-16.37,-16.13,0,*66
1488492190.64,53950,8.88,72700.3,-11.57,-16.31,-16.45,0,*6B
1488492191.86,53951,8.88,72710.3,-11.57,-16.45,-16.79,0,*66
1488492193.11,53952,8.88,72726.0,-11.57,-16.59,-17.07,0,*60
1488492194.32,53953,8.94,72724.8,-11.57,-16.79,-17.49,0,*69
1488492195.59,53954,8.94,72732.8,-11.59,-17.35,-17.93,0,*6E
1488492196.84,53955,8.88,72728.3,-11.59,-17.79,-18.17,0,*64
1488492198.12,53956,8.94,72720.8,-11.59,-18.41,-18.31,0,*67
1488492199.35,53957,8.88,72720.5,-11.59,-18.99,-18.17,0,*67
1488492200.62,53958,8.94,72724.0,-11.59,-19.75,-17.97,0,*6C
1488492201.88,53959,8.94,72724.5,-11.59,-20.05,-17.55,0,*6E
1488492203.14,53960,8.94,72726.8,-11.59,-20.29,-17.21,0,*69
1488492204.38,53961,8.94,72724.8,-11.59,-20.39,-16.89,0,*6A
1488492205.6,53962,8.88,72724.8,-11.59,-20.29,-16.37,0,*6D
1488492206.89,53963,8.94,72722.5,-11.59,-20.15,-16.13,0,*65
1488492208.15,53964,8.88,72722.3,-11.59,-19.91,-15.89,0,*64
1488492209.4,53965,8.88,72740.5,-11.61,-19.61,-15.67,0,*61
1488492210.64,53966,8.88,72738.0,-11.57,-19.03,-15.43,0,*65
1488492211.9,53967,8.88,72742.8,-11.59,-18.59,-15.15,0,*67
1488492213.17,53968,8.94,72744.8,-11.61,-18.31,-15.35,0,*6F
1488492214.42,53969,8.88,72740.8,-11.59,-17.83,-15.29,0,*6E
1488492215.67,53970,8.94,72746.5,-11.59,-17.49,-15.29,0,*60
1488492216.97,53971,8.88,72744.8,-11.59,-17.21,-15.43,0,*63
1488492218.25,53972,8.88,72748.0,-11.59,-17.07,-15.49,0,*6E
1488492219.52,53973,8.88,72750.5,-11.59,-17.11,-15.49,0,*68
1488492220.79,53974,8.88,72744.5,-11.59,-17.11,-15.49,0,*6F
1488492222.08,53975,8.94,72750.3,-11.59,-17.21,-15.57,0,*62
1488492223.3,53976,8.88,72748.5,-11.61,-17.31,-15.53,0,*6F
1488492224.57,53977,8.88,72746.5,-11.59,-17.35,-15.57,0,*65
1488492225.81,53978,8.88,72754.0,-11.61,-17.41,-15.63,0,*65
1488492227.06,53979,8.94,72736.3,-11.59,-17.49,-15.71,0,*64
1488492228.35,53980,8.88,72748.5,-11.59,-17.55,-15.89,0,*68
1488492229.61,53981,8.88,72746.5,-11.59,-17.55,-15.99,0,*68
1488492230.85,53982,8.88,72748.0,-11.61,-17.55,-16.03,0,*60
1488492232.09,53983,8.88,72750.3,-11.61,-17.59,-16.03,0,*6D
1488492233.36,53984,8.94,72748.0,-11.59,-17.41,-15.99,0,*68
1488492234.6,53985,8.94,72748.3,-11.61,-17.45,-16.37,0,*61
1488492235.89,53986,8.88,72748.5,-11.59,-17.41,-16.65,0,*6A
1488492237.16,53987,8.94,72752.5,-11.59,-17.41,-16.93,0,*62
1488492238.45,53988,8.88,72756.0,-11.59,-17.55,-17.55,0,*63
1488492239.72,53989,8.94,72750.0,-11.59,-17.93,-18.11,0,*67
1488492240.95,53990,8.94,72746.3,-11.61,-18.17,-18.59,0,*6B
1488492242.2,53991,8.88,72738.0,-11.59,-18.55,-19.07,0,*6D
1488492243.44,53992,8.88,72742.5,-11.61,-18.73,-19.31,0,*64
1488492244.65,53993,8.88,72736.0,-11.61,-19.07,-19.47,0,*66
1488492245.92,53994,8.94,72752.3,-11.59,-19.17,-19.61,0,*6F
1488492247.19,53995,8.88,72742.8,-11.61,-19.41,-19.65,0,*62
1488492248.45,53996,8.88,72746.0,-11.61,-19.65,-19.65,0,*67
1488492249.7,53997,8.94,72736.5,-11.61,-19.95,-19.61,0,*6D
1488492250.94,53998,8.94,72750.0,-11.61,-19.99,-19.41,0,*6C
1488492252.18,53999,8.94,72740.8,-11.61,-19.99,-19.41,0,*6D
1488492253.42,54000,8.88,72738.5,-11.61,-19.99,-19.41,0,*63
1488492254.69,54001,8.88,72730.5,-11.59,-19.65,-19.37,0,*6B
1488492255.96,54002,8.94,72738.3,-11.61,-19.41,-19.57,0,*63
1488492257.21,54003,8.94,72738.5,-11.59,-19.37,-20.09,0,*69
1488492258.46,54004,8.94,72748.0,-11.61,-19.57,-20.73,0,*6E
1488492259.73,54005,8.88,72738.8,-11.59,-20.09,-21.23,0,*61
1488492260.98,54006,8.88,72742.5,-11.61,-20.35,-21.57,0,*65
1488492262.24,54007,8.94,72746.8,-11.61,-20.49,-21.67,0,*6C
1488492263.45,54008,8.94,72750.5,-11.61,-20.63,-21.73,0,*6E
1488492264.72,54009,8.94,72750.5,-11.61,-20.79,-21.87,0,*6F
1488492265.96,54010,8.88,72748.3,-11.67,-21.09,-21.93,0,*62
1488492267.2,54011,8.88,72744.0,-11.65,-21.33,-21.93,0,*68
1488492268.43,54012,8.88,72746.5,-11.65,-21.43,-21.57,0,*64
1488492269.68,54013,8.88,72740.8,-11.65,-20.99,-20.93,0,*6A
1488492270.92,54014,8.88,72736.0,-11.65,-20.49,-20.69,0,*65
1488492272.19,54015,8.94,72742.3,-11.67,-20.49,-20.63,0,*6C
1488492273.46,54016,8.88,72732.8,-11.61,-20.49,-20.35,0,*6A
1488492274.72,54017,8.88,72740.0,-11.65,-19.85,-20.15,0,*67
1488492275.99,54018,8.94,72740.8,-11.67,-19.57,-20.39,0,*6B
1488492277.24,54019,8.88,72738.8,-11.65,-18.99,-20.99,0,*61
1488492278.48,54020,8.88,72736.8,-11.67,-19.07,-22.27,0,*68
1488492279.75,54021,8.88,72738.8,-11.67,-19.61,-24.61,0,*6D
1488492280.96,54022,8.88,72740.5,-11.65,-21.09,-26.49,0,*61
1488492282.23,54023,8.94,72740.5,-11.65,-22.73,-28.09,0,*64
1488492283.49,54024,8.88,72744.5,-11.67,-24.35,-29.29,0,*66
1488492284.76,54025,8.88,72746.0,-11.67,-26.29,-30.33,0,*6B
1488492286.06,54026,8.94,72750.3,-11.67,-28.09,-30.89,0,*65
1488492287.36,54027,8.88,72752.0,-11.67,-30.01,-30.77,0,*64
1488492288.62,54028,8.94,72756.8,-11.67,-31.29,-30.39,0,*6A
1488492289.91,54029,8.94,72756.0,-11.67,-32.45,-29.73,0,*64
1488492291.15,54030,8.88,72748.0,-11.67,-33.21,-28.97,0,*64
1488492292.41,54031,8.88,72746.3,-11.67,-33.55,-28.09,0,*61
1488492293.68,54032,8.88,72748.8,-11.67,-34.13,-26.81,0,*69
1488492294.9,54033,8.88,72756.8,-11.69,-34.41,-25.87,0,*64
1488492296.15,54034,8.88,72750.3,-11.69,-34.59,-24.87,0,*6B
1488492297.44,54035,8.88,72744.0,-11.71,-34.35,-23.69,0,*6E
1488492298.65,54036,8.88,72764.8,-11.69,-33.95,-22.41,0,*62
1488492299.94,54037,8.88,72764.0,-11.71,-33.27,-21.33,0,*65
1488492301.19,54038,8.88,72754.3,-11.71,-32.39,-20.05,0,*60
1488492302.44,54039,8.88,72748.3,-11.71,-31.45,-19.03,0,*65
1488492303.71,54040,8.88,72754.5,-11.71,-30.23,-18.31,0,*6A
1488492304.96,54041,8.94,72744.5,-11.71,-28.85,-17.69,0,*6C
1488492306.23,54042,8.88,72732.8,-11.71,-27.55,-17.25,0,*65
1488492307.48,54043,8.88,72732.5,-11.69,-26.49,-17.07,0,*61
1488492308.73,54044,8.88,72712.5,-11.71,-25.49,-16.89,0,*6B
1488492309.99,54045,8.88,72730.0,-11.71,-24.67,-16.45,0,*67
1488492311.27,54046,8.88,72742.0,-11.71,-23.89,-16.17,0,*64
1488492312.57,54047,8.88,72746.0,-11.71,-23.19,-15.57,0,*6B
1488492313.85,54048,8.88,72746.8,-11.71,-22.31,-15.15,0,*69
1488492315.06,54049,8.94,72756.3,-11.69,-21.63,-14.89,0,*61
1488492316.31,54050,8.88,72754.5,-11.69,-20.99,-14.61,0,*6B
1488492317.57,54051,8.88,72738.5,-11.69,-20.19,-14.47,0,*66
1488492318.83,54052,8.88,72740.0,-11.71,-19.37,-14.29,0,*62
1488492320.07,54053,8.88,72738.8,-11.69,-18.55,-14.23,0,*65
1488492321.31,54054,8.88,72738.5,-11.71,-17.69,-14.11,0,*6A
1488492322.58,54055,8.88,72752.5,-11.71,-16.79,-14.01,0,*6A
1488492323.89,54056,8.88,72744.0,-11.71,-16.13,-13.97,0,*6D
1488492325.15,54057,8.88,72738.3,-11.69,-15.57,-13.97,0,*66
1488492326.39,54058,8.94,72738.3,-11.69,-15.11,-14.01,0,*63
1488492327.63,54059,8.88,72738.0,-11.69,-14.69,-14.01,0,*6C
1488492328.85,54060,8.88,72738.0,-11.69,-14.61,-14.15,0,*6B
1488492330.1,54061,8.94,72750.0,-11.69,-14.47,-14.23,0,*6B
1488492331.32,54062,8.88,72746.5,-11.69,-14.37,-14.29,0,*65
1488492332.56,54063,8.88,72746.0,-11.67,-14.33,-14.33,0,*65
1488492333.8,54064,8.88,72728.0,-11.65,-14.43,-14.33,0,*67
1488492335.07,54065,8.88,72736.3,-11.67,-14.55,-14.37,0,*67
1488492336.36,54066,8.88,72740.3,-11.67,-14.79,-14.51,0,*6A
1488492337.61,54067,8.94,72748.0,-11.65,-14.83,-14.37,0,*6C
1488492338.84,54068,8.88,72738.0,-11.67,-15.07,-14.33,0,*68
1488492340.07,54069,8.88,72748.8,-11.67,-15.11,-14.33,0,*6E
1488492341.33,54070,8.88,72748.3,-11.67,-15.21,-14.19,0,*6D
1488492342.55,54071,8.88,72750.0,-11.69,-15.25,-14.23,0,*6F
1488492343.77,54072,8.88,72752.3,-11.69,-15.25,-14.29,0,*66
1488492345.01,54073,8.88,72750.3,-11.67,-15.25,-14.23,0,*63
1488492346.22,54074,8.88,72750.8,-11.65,-15.11,-14.23,0,*61
1488492347.46,54075,8.94,72752.5,-11.65,-14.93,-14.19,0,*62
1488492348.66,54076,8.88,72746.8,-11.65,-14.69,-14.19,0,*64
1488492349.9,54077,8.88,72740.3,-11.67,-14.69,-14.23,0,*6E
1488492351.17,54078,8.88,72738.3,-11.67,-14.55,-14.23,0,*6E
1488492352.4,54079,8.88,72738.8,-11.67,-14.65,-14.33,0,*6D
1488492353.67,54080,8.88,72736.5,-11.67,-14.65,-14.51,0,*6F
1488492354.9,54081,8.88,72734.0,-11.65,-14.69,-14.51,0,*60
1488492356.14,54082,8.88,72742.5,-11.65,-14.83,-14.69,0,*6C
1488492357.42,54083,8.88,72740.5,-11.65,-14.83,-14.79,0,*6C
1488492358.65,54084,8.88,72752.0,-11.65,-14.97,-15.07,0,*66
1488492359.92,54085,8.88,72744.5,-11.67,-15.21,-15.53,0,*68
1488492361.19,54086,8.88,72730.8,-11.65,-15.43,-15.81,0,*62
1488492362.41,54087,8.88,72736.0,-11.65,-15.71,-15.95,0,*67
1488492363.65,54088,8.88,72748.5,-11.65,-15.99,-16.09,0,*68
1488492364.92,54089,8.88,72746.0,-11.65,-16.13,-16.09,0,*68
1488492366.17,54090,8.88,72752.8,-11.65,-16.55,-16.23,0,*6A
1488492367.41,54091,8.88,72758.3,-11.65,-16.89,-16.27,0,*6E
1488492368.71,54092,8.88,72752.5,-11.67,-17.45,-16.13,0,*69
1488492369.95,54093,8.88,72748.8,-11.65,-17.73,-15.85,0,*63
1488492371.19,54094,8.88,72738.8,-11.65,-17.79,-15.53,0,*65
1488492372.41,54095,8.88,72732.5,-11.65,-17.73,-15.07,0,*6F
1488492373.63,54096,8.88,72730.3,-11.65,-17.35,-14.65,0,*6B
1488492374.9,54097,8.88,72742.0,-11.65,-17.17,-14.43,0,*6E
1488492376.11,54098,8.88,72742.5,-11.65,-16.83,-14.37,0,*6E
1488492377.36,54099,8.88,72736.0,-11.67,-16.45,-14.23,0,*62
1488492378.6,54100,8.88,72740.3,-11.65,-16.27,-14.23,0,*65
1488492379.81,54101,8.88,72740.5,-11.65,-15.95,-14.11,0,*6F
1488492381.02,54102,8.88,72740.0,-11.65,-15.71,-14.11,0,*66
1488492382.23,54103,8.88,72736.0,-11.65,-15.53,-14.11,0,*67
1488492383.5,54104,8.88,72740.5,-11.65,-15.35,-13.97,0,*69
1488492384.7,54105,8.88,72746.0,-11.65,-15.11,-13.93,0,*6A
1488492385.94,54106,8.88,72740.3,-11.59,-14.89,-13.73,0,*68
1488492387.19,54107,8.88,72742.8,-11.61,-14.79,-13.79,0,*67
1488492388.42,54108,8.88,72746.8,-11.61,-14.65,-13.79,0,*65
1488492389.69,54109,8.88,72744.0,-11.59,-14.47,-13.69,0,*6E
1488492390.9,54110,8.88,72740.3,-11.61,-14.37,-13.73,0,*61
1488492392.11,54111,8.88,72746.5,-11.61,-14.33,-13.65,0,*63
1488492393.35,54112,8.88,72744.8,-11.61,-14.29,-13.61,0,*6F
1488492394.57,54113,8.88,72744.0,-11.61,-14.19,-13.65,0,*69
1488492395.81,54114,8.88,72746.5,-11.59,-14.11,-13.55,0,*6E
1488492397.03,54115,8.88,72742.0,-11.61,-14.11,-13.55,0,*64
1488492398.3,54116,8.88,72742.5,-11.59,-13.97,-13.43,0,*62
1488492399.53,54117,8.88,72738.5,-11.61,-13.79,-13.47,0,*6C
1488492400.77,54118,8.88,72738.3,-11.61,-13.79,-13.51,0,*64
1488492402.0,54119,8.88,72732.0,-11.59,-13.73,-13.43,0,*67
1488492403.21,54120,8.88,72740.0,-11.61,-13.73,-13.47,0,*62
1488492404.44,54121,8.88,72736.8,-11.59,-13.69,-13.47,0,*63
1488492405.68,54122,8.88,72738.3,-11.59,-13.73,-13.43,0,*6F
1488492406.97,54123,8.88,72738.0,-11.59,-13.61,-13.37,0,*6E
1488492408.26,54124,8.88,72738.3,-11.59,-13.61,-13.37,0,*69
1488492409.52,54125,8.88,72740.5,-11.59,-13.61,-13.43,0,*6B
1488492410.76,54126,8.88,72734.0,-11.59,-13.55,-13.43,0,*6F
1488492412.05,54127,8.88,72736.5,-11.59,-13.61,-13.29,0,*65
1488492413.31,54128,8.88,72744.0,-11.59,-13.47,-13.29,0,*6E
1488492414.52,54129,8.88,72740.3,-11.61,-13.47,-13.23,0,*6E
1488492415.76,54130,8.88,72732.8,-11.59,-13.43,-13.23,0,*69
1488492416.97,54131,8.94,72734.0,-11.57,-13.43,-13.23,0,*66
1488492418.21,54132,8.88,72732.3,-11.57,-13.29,-13.15,0,*6C
1488492419.45,54133,8.88,72734.0,-11.57,-13.29,-13.23,0,*68
1488492420.68,54134,8.88,72734.0,-11.57,-13.29,-13.15,0,*6A
1488492421.9,54135,8.88,72734.0,-11.57,-13.23,-13.23,0,*64
1488492423.12,54136,8.88,72728.8,-11.57,-13.23,-13.23,0,*67
1488492424.33,54137,8.88,72730.3,-11.57,-13.23,-13.15,0,*63
1488492425.57,54138,8.88,72722.0,-11.55,-13.19,-13.11,0,*63
1488492426.79,54139,8.88,72710.8,-11.57,-13.23,-13.11,0,*69
1488492427.99,54140,8.88,72718.0,-11.57,-13.15,-13.15,0,*66
1488492429.2,54141,8.88,72724.3,-11.57,-13.15,-13.11,0,*63
1488492430.41,54142,8.88,72726.5,-11.57,-13.11,-13.11,0,*64
1488492431.65,54143,8.88,72734.0,-11.55,-13.11,-13.07,0,*60
1488492432.87,54144,8.88,72732.3,-11.57,-13.23,-13.23,0,*62
1488492434.08,54145,8.88,72724.3,-11.57,-13.15,-13.23,0,*66
1488492435.32,54146,8.88,72716.0,-11.55,-13.19,-13.19,0,*62
1488492436.53,54147,8.88,72712.3,-11.57,-13.15,-13.23,0,*64
1488492437.78,54148,8.88,72714.8,-11.55,-13.11,-13.19,0,*64
1488492438.99,54149,8.88,72718.3,-11.57,-13.11,-13.11,0,*6F
1488492440.2,54150,8.88,72724.3,-11.57,-13.11,-13.15,0,*63
1488492441.44,54151,8.88,72728.8,-11.55,-12.97,-13.11,0,*6B
1488492442.65,54152,8.88,72740.3,-11.57,-13.07,-13.11,0,*62
1488492443.86,54153,8.88,72744.5,-11.57,-13.11,-13.15,0,*60
1488492445.13,54154,8.88,72732.8,-11.55,-13.19,-13.33,0,*69
1488492446.37,54155,8.88,72742.8,-11.55,-13.23,-13.43,0,*66
1488492447.6,54156,8.88,72738.5,-11.57,-13.29,-13.47,0,*69
1488492448.84,54157,8.88,72746.3,-11.55,-13.11,-13.51,0,*66
1488492450.05,54158,8.88,72748.5,-11.57,-13.15,-13.55,0,*6B
1488492451.29,54159,8.88,72748.5,-11.55,-13.11,-13.55,0,*6C
1488492452.53,54160,8.88,72744.3,-11.57,-13.23,-13.61,0,*62
1488492453.74,54161,8.88,72744.5,-11.57,-13.19,-13.69,0,*62
1488492455.01,54162,8.88,72742.0,-11.55,-13.23,-13.83,0,*6E
1488492456.24,54163,8.88,72736.5,-11.55,-13.43,-14.11,0,*65
1488492457.48,54164,8.88,72734.0,-11.55,-13.65,-14.19,0,*6E
1488492458.72,54165,8.88,72724.8,-11.55,-13.69,-14.37,0,*6F
1488492460.0,54166,8.88,72730.3,-11.55,-13.79,-14.43,0,*6E
1488492461.27,54167,8.88,72732.8,-11.57,-14.01,-14.55,0,*62
1488492462.49,54168,8.88,72730.0,-11.57,-14.15,-14.69,0,*67
1488492463.76,54169,8.88,72726.5,-11.55,-14.11,-14.55,0,*6F
1488492464.98,54170,8.88,72736.0,-11.57,-14.37,-14.69,0,*6E
1488492466.25,54171,8.88,72734.0,-11.55,-14.51,-14.65,0,*61
1488492467.51,54172,8.88,72736.5,-11.55,-14.69,-14.55,0,*6A
1488492468.8,54173,8.88,72740.5,-11.55,-14.93,-14.55,0,*6E
1488492470.03,54174,8.88,72742.0,-11.57,-15.11,-14.55,0,*60
1488492471.29,54175,8.88,72742.5,-11.57,-15.35,-14.47,0,*64
1488492472.54,54176,8.88,72736.8,-11.55,-15.25,-14.23,0,*66
1488492473.75,54177,8.88,72730.5,-11.57,-15.25,-14.23,0,*65
1488492474.97,54178,8.88,72736.8,-11.57,-15.15,-14.23,0,*69
1488492476.22,54179,8.88,72740.3,-11.57,-15.01,-13.97,0,*65
1488492477.49,54180,8.88,72746.8,-11.55,-14.89,-13.97,0,*60
1488492478.76,54181,8.88,72738.0,-11.57,-14.75,-13.97,0,*60
1488492479.99,54182,8.88,72736.5,-11.57,-14.61,-13.87,0,*67
1488492481.26,54183,8.88,72734.3,-11.57,-14.47,-13.83,0,*66
1488492482.49,54184,8.88,72732.3,-11.57,-14.33,-13.83,0,*62
1488492483.76,54185,8.88,72728.0,-11.55,-14.05,-13.65,0,*6C
1488492485.03,54186,8.88,72730.8,-11.57,-14.01,-13.61,0,*6D
1488492486.29,54187,8.88,72736.0,-11.57,-13.87,-13.61,0,*65
1488492487.56,54188,8.88,72732.3,-11.57,-13.83,-13.61,0,*6E
1488492488.84,54189,8.88,72744.8,-11.57,-13.83,-13.61,0,*6F
1488492490.07,54190,8.88,72738.5,-11.59,-13.73,-13.69,0,*6E
1488492491.31,54191,8.88,72736.0,-11.59,-13.73,-13.73,0,*64
1488492492.57,54192,8.88,72730.3,-11.59,-13.73,-13.83,0,*68
1488492493.78,54193,8.88,72726.0,-11.57,-13.69,-13.73,0,*63
1488492495.01,54194,8.88,72734.0,-11.57,-13.69,-13.87,0,*6F
1488492496.28,54195,8.88,72726.3,-11.59,-13.69,-13.87,0,*60
1488492497.52,54196,8.88,72726.3,-11.61,-13.73,-14.05,0,*6E
1488492498.73,54197,8.88,72726.5,-11.57,-13.69,-14.15,0,*60